Regional Weather Roundup
Issued by NWS

Home | Current Version | Previous Version | Text Only | Print | Product List | Glossary On
Versions: 1 2 3 4 5 6 7 8 9 10 11 12 13 14 15 16 17 18 19 20 21 22 23 24 25 26 27 28 29 30 31 32 33 34 35 36 37 38 39 40 41 42 43 44 45 46 47 48 49 50
000
ASUS43 KFSD 240902
RWRSD

WEATHER ROUNDUP FOR SOUTH DAKOTA
NATIONAL WEATHER SERVICE SIOUX FALLS SD
400 AM CDT THU AUG 24 2017

NOTE: "FAIR" INDICATES FEW OR NO CLOUDS BELOW 12,000 FEET WITH NO
SIGNIFICANT WEATHER AND/OR OBSTRUCTIONS TO VISIBILITY.


SDZ001>005-009-010-012>017-241000-
NORTHWEST AND NORTH CENTRAL SOUTH DAKOTA

CITY           SKY/WX    TMP DP  RH WIND       PRES   REMARKS
BUFFALO          N/A     63  58  83 SE8       29.93S
FAITH            N/A     63  60  90 SE12      29.96S
MOBRIDGE       CLEAR     61  58  90 E12       29.93S
$$

SDZ012>016-024>037-041>051-057-063-072>074-241000-
SOUTHWEST AND SOUTH CENTRAL SOUTH DAKOTA

CITY           SKY/WX    TMP DP  RH WIND       PRES   REMARKS
RAPID CTY ARPT CLEAR     59  54  83 NE5       30.00R
PIERRE         CLEAR     59  58  96 NE7       29.90S
CUSTER         CLEAR     58  49  72 NE12      30.12S
ELLSWORTH AFB  CLEAR     66  56  71 CALM      30.00R
PHILIP         CLOUDY    58  58 100 CALM      29.94S
PINE RIDGE     CLOUDY    63  61  93 NE7       29.97S
SPEARFISH      FAIR      64  52  63 E10       30.01S
WINNER         FAIR      68  62  81 NW7       29.91S
$$

SDZ004>011-016>023-039-040-241000-
NORTHEAST SOUTH DAKOTA

CITY           SKY/WX    TMP DP  RH WIND       PRES   REMARKS
ABERDEEN       CLEAR     60  59  96 E9        29.98S
WATERTOWN      MOCLDY    60  58  92 E8        30.01R
BROOKINGS      PTCLDY    64  59  83 E14       30.00S
SISSETON         N/A     57  54  89 S8        30.04S
$$

SDZ017-020-022-023-036>040-048>070-241000-
SOUTHEAST SOUTH DAKOTA

CITY           SKY/WX    TMP DP  RH WIND       PRES   REMARKS
SIOUX FALLS    CLOUDY    67  59  75 S12       29.98S
HURON          CLEAR     63  60  90 E7        29.92S
CHAMBERLAIN    CLOUDY    63  62  97 NE5       29.88S
MITCHELL       PTCLDY    64  60  87 SE9       29.92F
YANKTON        TSTM      65  58  78 E10G17    29.99R
$$

ABBREVIATIONS USED IN REMARKS
   TC - TEMPERATURE IN CELSIUS
  WCI - WIND CHILL INDEX
   HX - HEAT INDEX
  VSB - VISIBILITY





USA.gov is the U.S. government's official web portal to all federal, state and local government web resources and services.